Location: Colonia Mina de C?rbuni
(46.1667°N, 22.7167°E)
Time: 00:32:28
(UTC+00:00)

Explorer 11/Cluster Stage 4 - All Passes

Search period start: 17 April 2024 00:00
Search period end: 27 April 2024 00:00
Orbit: 465 x 1220 km, 28.8° (Epoch: 16 April)

Date Brightness Start Highest point End Pass type
(mag) Time Alt. Az. Time Alt. Az. Time Alt. Az.
17 Apr - 01:17:15 10° SSW 01:20:01 13° SSE 01:23:01 10° SE visible
17 Apr - 03:03:12 10° SW 03:07:12 17° S 03:11:36 10° SE visible
17 Apr - 04:51:44 10° SW 04:54:35 13° SSW 04:57:34 10° S daylight
18 Apr - 01:00:15 10° SSW 01:02:41 13° SSE 01:05:17 10° SE visible
18 Apr - 02:46:12 10° SW 02:49:49 16° S 02:53:46 10° SSE visible
18 Apr - 04:35:10 10° SSW 04:37:08 11° SSW 04:39:12 10° S daylight
19 Apr - 00:43:20 10° S 00:45:21 12° SSE 00:47:31 10° SE visible
19 Apr - 02:29:17 10° SW 02:32:27 15° S 02:35:53 10° SSE visible
20 Apr - 00:26:31 10° S 00:28:02 11° SSE 00:29:38 10° SSE visible
20 Apr - 02:12:28 10° SSW 02:15:05 13° S 02:17:54 10° SSE visible
21 Apr - 00:09:57 10° S 00:10:43 10° S 00:11:30 10° SSE visible
21 Apr - 01:55:48 10° SSW 01:57:44 12° S 01:59:46 10° SSE visible
22 Apr - 01:39:41 10° SSW 01:40:23 10° S 01:41:07 10° S visible
